When you browse on this site, cookies collect data to enhance your experience and personalize the content and advertising you see.
Visit our Privacy Policy to learn more. By continuing to use the site, you agree to this use of cookies and data.
  • In Lithuania
  • List of Countries
  • For 7 days
  • Water Temperature
  • Satellite Maps
  • Weather Map
  • Weather Widgets
  • user-avatar
    Login

    Hourly Weather Eluru

    Today, 15 December, Saturday

    Time Temperature Precipitation Wind Pressure Humidity
    00:00 +25°C° 0 mm 1 mps 760 mmHg 69%
    01:00 +25°C° 0 mm 2 mps 760 mmHg 69%
    02:00 +25°C° 0 mm 2 mps 760 mmHg 69%
    03:00 +24°C° 0 mm 2 mps 759 mmHg 70%
    04:00 +24°C° 0 mm 2 mps 759 mmHg 71%
    05:00 +24°C° 0 mm 2 mps 759 mmHg 72%
    06:00 +25°C° 0 mm 3 mps 760 mmHg 68%
    07:00 +26°C° 0 mm 3 mps 760 mmHg 65%
    08:00 +27°C° 0 mm 4 mps 760 mmHg 61%
    09:00 +28°C° 0 mm 4 mps 760 mmHg 55%
    10:00 +29°C° 0 mm 4 mps 760 mmHg 49%
    11:00 +32°C° 0 mm 4 mps 759 mmHg 43%
    12:00 +32°C° 0 mm 4 mps 759 mmHg 42%
    13:00 +32°C° 0 mm 4 mps 758 mmHg 41%
    14:00 +32°C° 0 mm 4 mps 757 mmHg 40%
    15:00 +29°C° 0 mm 5 mps 758 mmHg 42%
    16:00 +28°C° 0 mm 5 mps 758 mmHg 44%
    17:00 +27°C° 0 mm 6 mps 758 mmHg 46%
    18:00 +26°C° 0 mm 6 mps 759 mmHg 46%
    19:00 +26°C° 0 mm 7 mps 759 mmHg 46%
    20:00 +26°C° 0 mm 7 mps 759 mmHg 46%
    21:00 +24°C° 0 mm 7 mps 759 mmHg 48%
    22:00 +24°C° 0 mm 7 mps 759 mmHg 49%
    23:00 +23°C° 0 mm 6 mps 759 mmHg 51%

    Tomorrow, 16 December, Sunday

    Time Temperature Precipitation Wind Pressure Humidity
    00:00 +22°C° 0.3 mm 5 mps 759 mmHg 55%
    01:00 +22°C° 0.3 mm 4 mps 758 mmHg 58%
    02:00 +21°C° 0.3 mm 3 mps 758 mmHg 61%
    03:00 +21°C° 0.4 mm 3 mps 758 mmHg 64%
    04:00 +21°C° 0.4 mm 3 mps 758 mmHg 67%
    05:00 +20°C° 0.4 mm 2 mps 758 mmHg 69%
    06:00 +20°C° 0.4 mm 3 mps 758 mmHg 71%
    07:00 +20°C° 0.4 mm 3 mps 759 mmHg 72%
    08:00 +20°C° 0.4 mm 3 mps 759 mmHg 73%
    09:00 +20°C° 0.1 mm 3 mps 759 mmHg 72%
    10:00 +21°C° 0.1 mm 4 mps 759 mmHg 72%
    11:00 +21°C° 0.1 mm 4 mps 759 mmHg 71%
    12:00 +21°C° 0.2 mm 4 mps 758 mmHg 73%
    13:00 +21°C° 0.2 mm 5 mps 757 mmHg 74%
    14:00 +20°C° 0.2 mm 5 mps 757 mmHg 75%
    15:00 +20°C° 0.3 mm 5 mps 756 mmHg 77%
    16:00 +20°C° 0.3 mm 6 mps 756 mmHg 78%
    17:00 +20°C° 0.3 mm 7 mps 756 mmHg 79%
    18:00 +20°C° 1.3 mm 7 mps 756 mmHg 81%
    19:00 +20°C° 1.3 mm 7 mps 756 mmHg 83%
    20:00 +20°C° 1.3 mm 7 mps 756 mmHg 84%
    21:00 +20°C° 0.9 mm 7 mps 756 mmHg 85%
    22:00 +18°C° 0.9 mm 7 mps 756 mmHg 85%
    23:00 +18°C° 0.9 mm 7 mps 755 mmHg 86%

    Day after tomorrow, 17 December, Monday

    Time Temperature Precipitation Wind Pressure Humidity
    00:00 +18°C° 0.6 mm 8 mps 755 mmHg 86%
    01:00 +20°C° 0.6 mm 8 mps 754 mmHg 85%
    02:00 +20°C° 0.6 mm 8 mps 754 mmHg 85%
    03:00 +20°C° 0.4 mm 8 mps 754 mmHg 85%
    04:00 +20°C° 0.4 mm 8 mps 754 mmHg 85%
    05:00 +20°C° 0.4 mm 8 mps 754 mmHg 85%
    06:00 +20°C° 0.2 mm 7 mps 755 mmHg 85%
    07:00 +20°C° 0.2 mm 7 mps 756 mmHg 85%
    08:00 +20°C° 0.2 mm 6 mps 757 mmHg 85%
    09:00 +21°C° 0.1 mm 6 mps 757 mmHg 84%
    10:00 +21°C° 0.1 mm 5 mps 757 mmHg 83%
    11:00 +22°C° 0.1 mm 5 mps 757 mmHg 82%
    12:00 +22°C° 0 mm 5 mps 757 mmHg 78%
    13:00 +23°C° 0 mm 4 mps 756 mmHg 75%
    14:00 +25°C° 0 mm 4 mps 756 mmHg 72%
    15:00 +25°C° 0 mm 3 mps 756 mmHg 74%
    16:00 +24°C° 0 mm 3 mps 756 mmHg 77%
    17:00 +23°C° 0 mm 2 mps 757 mmHg 79%
    18:00 +23°C° 0 mm 2 mps 757 mmHg 80%
    19:00 +21°C° 0 mm 3 mps 758 mmHg 81%
    20:00 +21°C° 0 mm 3 mps 759 mmHg 83%
    21:00 +20°C° 0 mm 3 mps 759 mmHg 84%
    22:00 +20°C° 0 mm 2 mps 759 mmHg 85%
    23:00 +19°C° 0 mm 2 mps 759 mmHg 86%

    18 December, Tuesday

    Time Temperature Precipitation Wind Pressure Humidity
    00:00 +19°C° 0 mm 3 mps 759 mmHg 86%
    01:00 +18°C° 0 mm 3 mps 758 mmHg 87%
    02:00 +18°C° 0 mm 3 mps 758 mmHg 88%
    03:00 +17°C° 0 mm 3 mps 758 mmHg 89%
    04:00 +17°C° 0 mm 3 mps 758 mmHg 90%
    05:00 +17°C° 0 mm 3 mps 758 mmHg 91%
    06:00 +18°C° 0 mm 3 mps 759 mmHg 87%
    07:00 +19°C° 0 mm 3 mps 759 mmHg 83%
    08:00 +20°C° 0 mm 3 mps 760 mmHg 79%
    09:00 +22°C° 0 mm 3 mps 760 mmHg 73%
    10:00 +25°C° 0 mm 3 mps 760 mmHg 68%
    11:00 +27°C° 0 mm 3 mps 759 mmHg 62%
    12:00 +27°C° 0 mm 3 mps 759 mmHg 60%
    13:00 +28°C° 0 mm 3 mps 758 mmHg 59%
    14:00 +28°C° 0 mm 3 mps 757 mmHg 57%
    15:00 +27°C° 0 mm 3 mps 757 mmHg 62%
    16:00 +26°C° 0 mm 3 mps 757 mmHg 66%
    17:00 +25°C° 0 mm 3 mps 758 mmHg 71%
    18:00 +24°C° 0 mm 3 mps 758 mmHg 74%
    19:00 +22°C° 0 mm 3 mps 759 mmHg 77%
    20:00 +21°C° 0 mm 2 mps 759 mmHg 80%
    21:00 +21°C° 0 mm 2 mps 759 mmHg 81%
    22:00 +21°C° 0 mm 2 mps 759 mmHg 83%
    23:00 +20°C° 0 mm 2 mps 759 mmHg 84%

    19 December, Wednesday

    Time Temperature Precipitation Wind Pressure Humidity
    00:00 +20°C° 0 mm 2 mps 759 mmHg 86%
    01:00 +20°C° 0 mm 2 mps 758 mmHg 88%
    02:00 +20°C° 0 mm 2 mps 758 mmHg 90%
    03:00 +20°C° 0 mm 2 mps 758 mmHg 91%
    04:00 +20°C° 0 mm 2 mps 758 mmHg 93%
    05:00 +19°C° 0 mm 2 mps 758 mmHg 94%
    06:00 +21°C° 0 mm 2 mps 759 mmHg 90%
    07:00 +23°C° 0 mm 2 mps 760 mmHg 85%
    08:00 +24°C° 0 mm 2 mps 761 mmHg 81%
    09:00 +26°C° 0 mm 3 mps 760 mmHg 75%
    10:00 +27°C° 0 mm 3 mps 760 mmHg 69%
    11:00 +29°C° 0 mm 3 mps 760 mmHg 63%
    12:00 +29°C° 0 mm 3 mps 759 mmHg 61%
    13:00 +30°C° 0 mm 3 mps 758 mmHg 59%
    14:00 +30°C° 0 mm 3 mps 757 mmHg 56%
    15:00 +29°C° 0 mm 3 mps 757 mmHg 61%
    16:00 +28°C° 0 mm 2 mps 757 mmHg 66%
    17:00 +27°C° 0 mm 2 mps 758 mmHg 70%
    18:00 +27°C° 0 mm 2 mps 758 mmHg 75%
    19:00 +26°C° 0 mm 2 mps 759 mmHg 80%
    20:00 +25°C° 0 mm 2 mps 760 mmHg 84%
    21:00 +25°C° 0 mm 3 mps 760 mmHg 87%
    22:00 +24°C° 0 mm 3 mps 760 mmHg 89%
    23:00 +24°C° 0 mm 3 mps 760 mmHg 92%

    20 December, Thursday

    Time Temperature Precipitation Wind Pressure Humidity
    00:00 +24°C° 0 mm 3 mps 759 mmHg 93%
    01:00 +22°C° 0 mm 3 mps 759 mmHg 93%
    02:00 +23°C° 0 mm 2 mps 759 mmHg 94%
    03:00 +23°C° 0 mm 2 mps 759 mmHg 94%
    04:00 +23°C° 0 mm 2 mps 759 mmHg 94%
    05:00 +21°C° 0 mm 2 mps 759 mmHg 93%
    06:00 +22°C° 0 mm 3 mps 759 mmHg 87%
    07:00 +25°C° 0 mm 3 mps 760 mmHg 81%
    08:00 +26°C° 0 mm 3 mps 761 mmHg 75%
    09:00 +27°C° 0 mm 3 mps 760 mmHg 68%
    10:00 +29°C° 0 mm 3 mps 760 mmHg 60%
    11:00 +30°C° 0 mm 3 mps 760 mmHg 53%
    12:00 +31°C° 0 mm 3 mps 759 mmHg 50%
    13:00 +33°C° 0 mm 3 mps 758 mmHg 48%
    14:00 +33°C° 0 mm 3 mps 757 mmHg 45%
    15:00 +31°C° 0 mm 3 mps 757 mmHg 50%
    16:00 +30°C° 0 mm 3 mps 757 mmHg 56%
    17:00 +29°C° 0 mm 2 mps 757 mmHg 61%
    18:00 +28°C° 0 mm 3 mps 758 mmHg 67%
    19:00 +27°C° 0 mm 3 mps 758 mmHg 72%
    20:00 +26°C° 0 mm 3 mps 759 mmHg 77%
    21:00 +26°C° 0 mm 3 mps 759 mmHg 78%
    22:00 +25°C° 0 mm 2 mps 759 mmHg 80%
    23:00 +25°C° 0 mm 2 mps 758 mmHg 81%
    Show more